Location: Newark
(25.6108°S, 54.5803°W)
Time: 22:10:44
(UTC+00:00)

Tiros 1 - Pass Details

Date: 31 October 2020
Orbit: 630 x 664 km, 48.4° (Epoch: 29 November)

Event Time Altitude Azimuth Distance (km) Brightness Sun altitude
Rises 22:36:32 0° 206° (SSW) 3,019 11.4 -9.8°
Reaches altitude 10° 22:41:01 10° 168° (SSE) 2,099 9.9 -10.8°
Maximum altitude 22:42:09 11° 154° (SSE) 2,048 9.7 -11.0°
Drops below altitude 10° 22:43:17 10° 141° (SE) 2,094 9.6 -11.3°
Enters shadow 22:45:48 - 115° (ESE) 2,498 9.8 -11.8°
Sets 22:47:43 0° 102° (ESE) 2,994 - -12.2°
